User: anonymous   Login
Location: Crocus Hill
(18.2167°N, 63.0667°W)
Time: 12:46:31
(UTC+00:00)
Language:

BREEZE M DEB (TANK) - Orbit

View from above orbital plane
View from above orbital plane
View from above satellite
View from above satellite

Ground track
Ground track

The orbit data is extracted from the following two-line orbital elements,

1 28359U 04022B   20088.60961984  .00001464  00000-0  22306-3 0  9997
2 28359  49.5070 107.1301 4640415  17.0029 354.4780  6.23317423348445
Epoch (UTC): 28 March 2020 14:37:51
Eccentricity: 0.4640415
inclination: 49.5070°
perigee height: 306 km
apogee height: 11881 km
right ascension of ascending node: 107.1301°
argument of perigee: 17.0029°
revolutions per day: 6.23317423
mean anomaly at epoch: 354.4780°
orbit number at epoch: 34844

The dashed part of the orbit path shows where the satellite is in the earth's shadow,  

DLR